Date String (YYYY-MM-DD hh:mm:ss) UTC,Instrument flags,absolute air pressure of the measurement (hPa),sample flow rate (lpm),inlet stack bypass flow (lpm),air temperature of the measurement (°C),ambient temperature measured by the external sensor (°C),aerosol sample conditioner tube jacket temperature (°C),OPC LED temperature (°C),internal box temperature (°C),relative humidity of the measurement (%),span deviation,mass concentration of particles derived from Lorenz-Mie calculation of OPC scattering (μg/m³),mass concentration of particles derived from Lorenz-Mie calculation of OPC scattering (μg/m³),mass concentration of particles derived from Lorenz-Mie calculation of OPC scattering (μg/m³)
DateTimeUTC,F1_M11,P_M11,Q1_M11,Q2_M11,T1_M11,T2_M11,T3_M11,T4_M11,T5_M11,U1_M11,ZSPAN_M11,X0_M11,X2_M11,X1_M11
2023-08-31 02:00:00,SystemResetWarning,0828.1,5.01,000.00,025.4,023.5,000.0,033.6,027.1,24.9,0000.0,0009.42,0004.05,0003.57
2023-08-31 02:01:00,SystemResetWarning,0828.1,5.00,000.00,025.5,024.0,000.0,033.6,027.2,24.4,0000.0,0008.89,0004.01,0003.56
2023-08-31 02:02:00,SystemResetWarning,0828.1,4.99,000.00,025.5,024.0,000.0,033.6,027.3,24.3,0000.0,0008.75,0004.01,0003.56
2023-08-31 02:03:00,SystemResetWarning,0828.0,4.99,000.00,025.5,022.9,000.0,033.6,026.8,24.6,0000.0,0008.76,0004.00,0003.55
2023-08-31 02:04:00,SystemResetWarning,0827.9,5.01,000.00,025.3,022.0,000.0,033.5,026.5,24.7,0000.0,0008.76,0003.99,0003.54
2023-08-31 02:05:00,SystemResetWarning,0828.0,5.01,000.00,025.3,022.2,000.0,033.5,026.6,24.2,0000.0,0008.33,0003.97,0003.53
2023-08-31 02:06:00,SystemResetWarning,0828.0,4.99,000.00,025.2,022.5,000.0,033.5,026.7,24.4,0000.0,0008.07,0003.92,0003.52
2023-08-31 02:07:00,SystemResetWarning,0828.1,5.00,000.00,025.3,023.0,000.0,033.5,026.8,24.4,0000.0,0008.14,0003.90,0003.49
2023-08-31 02:08:00,SystemResetWarning,0828.1,5.00,000.00,025.3,023.4,000.0,033.6,027.0,24.2,0000.0,0007.92,0003.90,0003.47
2023-08-31 02:09:00,SystemResetWarning,0828.1,5.01,000.00,025.4,023.9,000.0,033.6,027.2,22.9,0000.0,0007.40,0003.87,0003.46
2023-08-31 02:10:00,SystemResetWarning,0828.1,5.00,000.00,025.5,024.2,000.0,033.6,027.3,22.4,0000.0,0007.71,0003.86,0003.45
2023-08-31 02:11:00,SystemResetWarning,0828.1,4.98,000.00,025.5,023.7,000.0,033.6,027.1,22.5,0000.0,0007.84,0003.86,0003.43
2023-08-31 02:12:00,SystemResetWarning,0828.1,5.00,000.00,025.4,022.3,000.0,033.5,026.6,22.5,0000.0,0007.78,0003.83,0003.42
2023-08-31 02:13:00,SystemResetWarning,0828.0,5.01,000.00,025.3,022.0,000.0,033.5,026.6,22.8,0000.0,0007.55,0003.81,0003.40
2023-08-31 02:14:00,SystemResetWarning,0828.1,5.01,000.00,025.3,022.3,000.0,033.5,026.7,22.7,0000.0,0007.66,0003.80,0003.38
2023-08-31 02:15:00,SystemResetWarning,0828.1,5.00,000.00,025.3,022.7,000.0,033.5,026.8,22.8,0000.0,0007.87,0003.80,0003.37
2023-08-31 02:16:00,SystemResetWarning,0828.2,5.00,000.00,025.3,023.2,000.0,033.5,026.9,22.5,0000.0,0008.05,0003.79,0003.37
2023-08-31 02:17:00,SystemResetWarning,0828.1,5.00,000.00,025.4,023.6,000.0,033.6,027.1,22.4,0000.0,0008.01,0003.80,0003.38
2023-08-31 02:18:00,SystemResetWarning,0828.2,5.01,000.00,025.4,024.0,000.0,033.6,027.2,22.2,0000.0,0008.33,0003.83,0003.40
2023-08-31 02:19:00,SystemResetWarning,0828.2,4.99,000.00,025.5,024.3,000.0,033.6,027.3,22.4,0000.0,0008.25,0003.82,0003.41
2023-08-31 02:20:00,SystemResetWarning,0828.2,4.99,000.00,025.5,023.8,000.0,033.6,027.1,22.2,0000.0,0008.31,0003.83,0003.43
2023-08-31 02:21:00,SystemResetWarning,0828.1,5.00,000.00,025.4,022.4,000.0,033.6,026.6,22.3,0000.0,0008.21,0003.87,0003.44
2023-08-31 02:22:00,SystemResetWarning,0828.2,5.01,000.00,025.3,022.0,000.0,033.5,026.5,22.5,0000.0,0007.99,0003.87,0003.46
2023-08-31 02:23:00,SystemResetWarning,0828.2,5.01,000.00,025.3,022.3,000.0,033.5,026.6,23.0,0000.0,0007.99,0003.90,0003.47
2023-08-31 02:24:00,SystemResetWarning,0828.2,5.00,000.00,025.2,022.7,000.0,033.5,026.7,22.9,0000.0,0007.93,0003.88,0003.48
2023-08-31 02:25:00,SystemResetWarning,0828.2,5.00,000.00,025.3,023.1,000.0,033.5,026.9,22.8,0000.0,0007.70,0003.88,0003.50
2023-08-31 02:26:00,SystemResetWarning,0828.2,5.00,000.00,025.3,023.6,000.0,033.6,027.0,22.6,0000.0,0007.66,0003.89,0003.51
2023-08-31 02:27:00,SystemResetWarning,0828.2,5.01,000.00,025.4,023.9,000.0,033.6,027.2,22.3,0000.0,0007.62,0003.90,0003.51
2023-08-31 02:28:00,SystemResetWarning,0828.3,5.00,000.00,025.5,024.1,000.0,033.6,027.2,22.3,0000.0,0007.79,0003.88,0003.51
2023-08-31 02:29:00,SystemResetWarning,0828.3,4.98,000.00,025.4,023.0,000.0,033.6,026.8,22.2,0000.0,0007.59,0003.84,0003.50
2023-08-31 02:30:00,SystemResetWarning,0828.2,5.01,000.00,025.3,021.9,000.0,033.5,026.5,22.6,0000.0,0007.58,0003.84,0003.50
2023-08-31 02:31:00,SystemResetWarning,0828.3,5.01,000.00,025.2,022.0,000.0,033.5,026.6,22.2,0000.0,0007.76,0003.87,0003.49
2023-08-31 02:32:00,SystemResetWarning,0828.3,5.00,000.00,025.2,022.3,000.0,033.5,026.6,22.0,0000.0,0007.67,0003.84,0003.49
2023-08-31 02:33:00,SystemResetWarning,0828.3,4.99,000.00,025.2,022.8,000.0,033.5,026.7,22.4,0000.0,0007.68,0003.81,0003.48
2023-08-31 02:34:00,SystemResetWarning,0828.3,5.00,000.00,025.3,023.2,000.0,033.5,026.9,22.2,0000.0,0008.06,0003.81,0003.48
2023-08-31 02:35:00,SystemResetWarning,0828.3,5.01,000.00,025.3,023.6,000.0,033.5,027.1,22.0,0000.0,0008.37,0003.82,0003.47
2023-08-31 02:36:00,SystemResetWarning,0828.3,5.00,000.00,025.4,024.0,000.0,033.6,027.2,21.8,0000.0,0008.60,0003.78,0003.46
2023-08-31 02:37:00,SystemResetWarning,0828.4,5.00,000.00,025.5,024.3,000.0,033.6,027.3,21.6,0000.0,0008.85,0003.75,0003.43
2023-08-31 02:38:00,SystemResetWarning,0828.4,4.99,000.00,025.5,024.0,000.0,033.6,027.2,21.3,0000.0,0008.86,0003.75,0003.41
2023-08-31 02:39:00,SystemResetWarning,0828.4,5.00,000.00,025.4,022.5,000.0,033.5,026.7,21.8,0000.0,0008.93,0003.74,0003.41
2023-08-31 02:40:00,SystemResetWarning,0828.3,5.02,000.00,025.3,021.9,000.0,033.5,026.5,22.3,0000.0,0008.97,0003.76,0003.39
2023-08-31 02:41:00,SystemResetWarning,0828.4,4.99,000.00,025.2,022.1,000.0,033.4,026.6,22.2,0000.0,0009.43,0003.75,0003.39
2023-08-31 02:42:00,SystemResetWarning,0828.4,5.00,000.00,025.2,022.5,000.0,033.5,026.6,22.6,0000.0,0009.66,0003.74,0003.38
2023-08-31 02:43:00,SystemResetWarning,0828.4,5.00,000.00,025.2,023.0,000.0,033.5,026.8,24.0,0000.0,0009.55,0003.73,0003.36
2023-08-31 02:44:00,SystemResetWarning,0828.5,5.00,000.00,025.3,023.4,000.0,033.5,027.0,23.4,0000.0,0009.48,0003.68,0003.31
2023-08-31 02:45:00,SystemResetWarning,0828.6,5.00,000.00,025.4,023.8,000.0,033.5,027.1,23.6,0000.0,0008.97,0003.59,0003.22
2023-08-31 02:46:00,SystemResetWarning,0828.5,5.01,000.00,025.4,024.1,000.0,033.6,027.3,23.7,0000.0,0008.72,0003.52,0003.15
2023-08-31 02:47:00,SystemResetWarning,0828.5,4.99,000.00,025.5,024.3,000.0,033.6,027.3,23.1,0000.0,0009.08,0003.46,0003.05
2023-08-31 02:48:00,SystemResetWarning,0828.5,4.98,000.00,025.5,023.4,000.0,033.6,027.0,22.9,0000.0,0009.78,0003.40,0002.94
2023-08-31 02:49:00,SystemResetWarning,0828.5,5.01,000.00,025.4,022.1,000.0,033.5,026.6,23.0,0000.0,0009.97,0003.32,0002.82
2023-08-31 02:50:00,SystemResetWarning,0828.4,5.01,000.00,025.3,022.0,000.0,033.5,026.6,22.7,0000.0,0009.81,0003.23,0002.69
2023-08-31 02:51:00,SystemResetWarning,0828.5,5.00,000.00,025.2,022.3,000.0,033.5,026.6,25.0,0000.0,0009.30,0003.14,0002.56
2023-08-31 02:52:00,SystemResetWarning,0828.6,5.01,000.00,025.2,022.7,000.0,033.5,026.7,24.8,0000.0,0008.81,0003.01,0002.43
2023-08-31 02:53:00,SystemResetWarning,0828.5,5.00,000.00,025.3,023.1,000.0,033.5,026.9,24.8,0000.0,0008.74,0002.85,0002.31
2023-08-31 02:54:00,SystemResetWarning,0828.6,4.99,000.00,025.3,023.6,000.0,033.5,027.0,24.2,0000.0,0009.05,0002.71,0002.19
2023-08-31 02:55:00,SystemResetWarning,0828.6,5.00,000.00,025.4,023.9,000.0,033.6,027.2,24.6,0000.0,0009.52,0002.60,0002.12
2023-08-31 02:56:00,SystemResetWarning,0828.5,5.01,000.00,025.5,024.3,000.0,033.6,027.3,25.0,0000.0,0009.66,0002.63,0002.11
2023-08-31 02:57:00,SystemResetWarning,0828.5,5.00,000.00,025.5,024.5,000.0,033.7,027.4,24.0,0000.0,0009.63,0002.60,0002.12
2023-08-31 02:58:00,SystemResetWarning,0828.5,4.98,000.00,025.6,023.7,000.0,033.6,027.2,24.3,0000.0,0009.14,0002.60,0002.12
2023-08-31 02:59:00,SystemResetWarning,0828.5,5.01,000.00,025.4,022.3,000.0,033.5,026.7,25.3,0000.0,0008.03,0002.62,0002.12
